Saint Louis, MO

5:11 PM CDT on August 27, 2016 (GMT -0500)
Lambert-Saint Louis International

Weather History for KSTL - February, 2012

Change the Weather History Date:

Friday, February 10, 2012

  Actual Average Record
Temperature  
Mean Temperature 33 °F 35 °F  
Max Temperature 42 °F 43 °F 83 °F (1932)
Min Temperature 23 °F 26 °F -9 °F (1982)
Degree Days  
Heating Degree Days 32 30  
Month to date heating degree days 236 311  
Since 1 July heating degree days 2461 3105  
Cooling Degree Days 0 0  
Month to date cooling degree days 0 0  
Year to date cooling degree days 0 0  
Moisture  
Dew Point 27 °F    
Average Humidity 74    
Maximum Humidity 85    
Minimum Humidity 62    
Precipitation  
Precipitation 0.04 in 0.09 in 1.46 in (1875)
Month to date precipitation 1.49 0.79  
Year to date precipitation 3.83 3.19  
Snow  
Snow T in 0.10 in 4.20 in (1988)
Month to date snowfall 0.5 1.6  
Since 1 July snowfall 4.3 12.3  
Snow Depth 0.00 in    
Sea Level Pressure  
Sea Level Pressure 30.10 in    
Wind  
Wind Speed 13 mph (West)    
Max Wind Speed 25 mph    
Max Gust Speed 33 mph    
Visibility 7 miles    
Events Rain , Snow    
T = Trace of Precipitation, MM = Missing Value Source: NWS Daily Summary

Daily Weather History Graph

Daily Weather History Graph

Search for Another Location

Airport or City:

Trip Planner

Search our weather history database for the weather conditions in past years. The results will help you decide how hot, cold, wet, or windy it might be!

Date:

Astronomy

Feb. 10, 2012 Rise Set
Actual Time 6:58 AM CST 5:33 PM CST
Civil Twilight 6:31 AM CST 6:00 PM CST
Nautical Twilight 6:00 AM CST 6:31 PM CST
Astronomical Twilight 5:29 AM CST 7:02 PM CST
Moon 9:08 PM CST (2/10) 8:10 AM CST (2/10)
Length of Visible Light 11h 29m
Length of Day
10h 34m
Waning Gibbous, 90% of the Moon is Illuminated
Feb 10
Waning Gibbous
Feb 14
Last Quarter
Feb 21
New
Feb 29
First Quarter
Mar 8
Full

Hourly Weather History & Observations

Time (CST) Temp. Windchill Dew Point Humidity Pressure Visibility Wind Dir Wind Speed Gust Speed Precip Events Conditions
12:51 AM 36.0 °F 30.3 °F 28.9 °F 76% 30.17 in 10.0 mi South 6.9 mph - N/A   Overcast
1:51 AM 36.0 °F 29.0 °F 28.9 °F 76% 30.14 in 10.0 mi South 9.2 mph - N/A   Overcast
2:51 AM 37.0 °F 31.0 °F 28.9 °F 73% 30.13 in 10.0 mi SSW 8.1 mph - N/A   Overcast
3:51 AM 37.0 °F 31.0 °F 28.9 °F 73% 30.10 in 10.0 mi SSW 8.1 mph - N/A   Overcast
4:51 AM 37.9 °F 30.9 °F 28.9 °F 70% 30.09 in 10.0 mi SW 10.4 mph - N/A   Overcast
5:51 AM 37.9 °F 30.9 °F 30.0 °F 73% 30.09 in 10.0 mi SW 10.4 mph - N/A   Overcast
6:51 AM 37.0 °F 30.4 °F 30.9 °F 79% 30.07 in 8.0 mi SSW 9.2 mph - 0.00 in Rain , Snow Light Rain
6:58 AM 37.4 °F 30.3 °F 30.2 °F 75% 30.05 in 8.0 mi SSW 10.4 mph - 0.00 in Rain , Snow Light Rain
7:24 AM 37.4 °F 30.3 °F 32.0 °F 81% 30.05 in 8.0 mi SSW 10.4 mph - 0.00 in Rain , Snow Light Rain
7:40 AM 37.4 °F 29.3 °F 33.8 °F 87% 30.05 in 8.0 mi SSW 12.7 mph - 0.00 in Rain Light Rain
7:51 AM 37.0 °F 28.9 °F 33.1 °F 86% 30.07 in 6.0 mi SSW 12.7 mph - 0.00 in Rain Light Rain
8:08 AM 37.4 °F 29.3 °F 33.8 °F 87% 30.04 in 6.0 mi SW 12.7 mph - 0.00 in Rain Light Rain
8:51 AM 37.0 °F 29.3 °F 34.0 °F 89% 30.07 in 6.0 mi SW 11.5 mph - 0.00 in Rain Light Rain
9:51 AM 37.9 °F 30.5 °F 34.0 °F 86% 30.08 in 6.0 mi WSW 11.5 mph - 0.00 in Rain Light Rain
10:51 AM 39.0 °F 31.8 °F 36.0 °F 89% 30.06 in 5.0 mi WSW 11.5 mph - 0.00 in Rain Light Rain
11:39 AM 42.8 °F 37.0 °F 37.4 °F 81% 30.01 in 6.0 mi WSW 10.4 mph - 0.00 in   Haze
11:51 AM 41.0 °F 34.3 °F 36.0 °F 82% 30.03 in 6.0 mi WSW 11.5 mph - 0.00 in   Haze
12:51 PM 41.0 °F 33.9 °F 36.0 °F 82% 30.01 in 6.0 mi WSW 12.7 mph - N/A   Haze
1:39 PM 39.2 °F 32.0 °F 37.4 °F 93% 29.98 in 3.0 mi West 11.5 mph - 0.00 in Rain Light Rain
1:47 PM 39.2 °F 32.0 °F 37.4 °F 93% 29.98 in 2.0 mi West 11.5 mph - 0.00 in Rain Light Rain
1:51 PM 39.9 °F 32.9 °F 36.0 °F 86% 30.01 in 2.0 mi West 11.5 mph - 0.01 in Rain Light Rain
1:58 PM 39.2 °F 33.6 °F 35.6 °F 87% 29.98 in 3.0 mi West 8.1 mph - 0.01 in Rain Light Rain
2:11 PM 39.2 °F 30.2 °F 35.6 °F 87% 29.98 in 2.0 mi WNW 17.3 mph 24.2 mph 0.01 in Rain Light Rain
2:34 PM 35.6 °F 23.4 °F 30.2 °F 81% 30.00 in 2.0 mi NNW 25.3 mph 31.1 mph 0.03 in Rain , Snow Light Rain
2:51 PM 34.0 °F 22.7 °F 28.9 °F 82% 30.04 in 2.5 mi NNW 19.6 mph 31.1 mph 0.03 in Rain , Snow Light Rain
3:12 PM 33.8 °F 21.9 °F 26.6 °F 75% 30.03 in 3.0 mi NW 21.9 mph 29.9 mph 0.00 in Rain , Snow Light Rain
3:22 PM 32.0 °F 19.8 °F 26.6 °F 80% 30.04 in 4.0 mi NW 20.7 mph 26.5 mph 0.00 in Snow Light Snow
3:29 PM 32.0 °F 19.8 °F 26.6 °F 80% 30.05 in 4.0 mi NW 20.7 mph 26.5 mph 0.00 in Snow Light Snow
3:42 PM 32.0 °F 20.8 °F 26.6 °F 80% 30.06 in 5.0 mi NW 17.3 mph 24.2 mph 0.00 in Snow Light Snow
3:51 PM 32.0 °F 21.2 °F 25.0 °F 75% 30.09 in 9.0 mi NNW 16.1 mph 25.3 mph 0.00 in Snow Light Snow
4:19 PM 30.2 °F 18.1 °F 24.8 °F 80% 30.07 in 4.0 mi NW 18.4 mph 31.1 mph 0.00 in Snow Light Snow
4:41 PM 30.2 °F 17.4 °F 23.0 °F 75% 30.08 in 6.0 mi NNW 20.7 mph 26.5 mph 0.00 in Snow Light Snow
4:51 PM 30.0 °F 17.2 °F 21.9 °F 72% 30.12 in 9.0 mi NW 20.7 mph 28.8 mph 0.00 in Snow Light Snow
5:34 PM 28.4 °F 16.2 °F 19.4 °F 69% 30.11 in 10.0 mi NW 17.3 mph 27.6 mph 0.00 in   Mostly Cloudy
5:51 PM 28.9 °F 16.1 °F 19.0 °F 67% 30.15 in 10.0 mi NW 19.6 mph 27.6 mph 0.00 in   Mostly Cloudy
6:51 PM 28.0 °F 16.1 °F 18.0 °F 66% 30.19 in 10.0 mi NW 16.1 mph 26.5 mph N/A   Overcast
7:51 PM 26.1 °F 13.6 °F 16.0 °F 66% 30.23 in 10.0 mi NW 16.1 mph 26.5 mph N/A   Overcast
8:37 PM 24.8 °F 11.9 °F 15.8 °F 69% 30.23 in 10.0 mi NW 16.1 mph 26.5 mph N/A   Mostly Cloudy
8:51 PM 24.1 °F 9.8 °F 15.1 °F 69% 30.27 in 10.0 mi NW 19.6 mph 23.0 mph N/A   Mostly Cloudy
9:51 PM 24.1 °F 12.0 °F 14.0 °F 65% 30.30 in 10.0 mi WNW 13.8 mph 24.2 mph N/A   Mostly Cloudy
10:28 PM 23.0 °F 9.2 °F 12.2 °F 63% 30.27 in 10.0 mi NW 17.3 mph 28.8 mph 0.00 in Snow Light Snow
10:51 PM 23.0 °F 9.6 °F 12.9 °F 65% 30.31 in 10.0 mi NW 16.1 mph 24.2 mph 0.00 in Snow Light Snow
11:51 PM 23.0 °F 10.1 °F 12.9 °F 65% 30.32 in 10.0 mi NW 15.0 mph 21.9 mph 0.00 in Snow Light Snow